Location: Ermatingen
(47.6706°N, 9.0857°E)
Time: 08:22:49
(UTC+00:00)

Cosmos 1428 Rocket - Pass Details

Date: 02 December 2021
Orbit: 949 x 987 km, 82.9° (Epoch: 26 January)

Event Time Altitude Azimuth Distance (km) Brightness Sun altitude
Rises 17:50:58 0° 346° (NNW) 3,634 7.6 -22.3°
Reaches altitude 10° 17:53:33 10° 340° (NNW) 2,686 6.9 -22.8°
Maximum altitude 17:59:19 45° 270° (W) 1,281 5.5 -23.7°
Drops below altitude 10° 18:05:06 10° 200° (SSW) 2,685 7.1 -24.7°
Sets 18:07:41 0° 194° (SSW) 3,633 7.7 -25.1°
